Location: Dompierre
(49.9075°N, 2.8046°E)
Time: 01:41:24
(UTC+00:00)

Daily predictions for brighter satellites

Satellite Brightness Start Highest point End
(mag) Time Altitude Azimuth Time Altitude Azimuth Time Altitude Azimuth
USA 59 Rocket 3.1 03:34:44 11° ESE 03:34:44 11° ESE 03:34:51 10° ESE
NOSS 3-1 (C) 4.5 03:34:05 48° NE 03:34:07 48° NE 03:42:06 10° ESE
ACS3 Solar Sail 4.2 03:40:14 10° N 03:40:27 11° N 03:40:27 11° N
SL-16 R/B 3.9 03:46:48 25° NNE 03:47:35 25° NE 03:52:14 10° E
Cosmos 2082 Rocket 3.7 03:49:32 26° SE 03:51:23 32° ESE 03:56:17 10° NE
COSMOS 2455 3.4 03:58:09 56° E 03:58:09 56° E 04:03:23 10° SE
ATLAS 3B R/B 4.1 03:59:03 29° N 03:59:40 29° N 04:06:21 10° ENE
NOSS 3-4 (A) 4.4 04:02:31 35° NNE 04:02:31 35° NNE 04:06:09 10° NE
NOSS 3-4 (C) 4.4 04:02:40 35° NNE 04:02:40 35° NNE 04:06:19 10° NE
Cosmos 1980 Rocket 3.5 04:14:14 30° SSE 04:14:14 30° SSE 04:16:55 10° SSE
Cosmos 2369 3.9 04:16:15 68° E 04:16:15 68° E 04:21:28 10° SE
COSMO-SKYMED 1 4.2 04:18:37 10° SE 04:22:11 29° ENE 04:22:50 28° NE
Aureole 1 Rocket 4.2 04:20:44 56° NNW 04:22:28 86° ENE 04:29:59 10° SSE
ADEOS Rocket 4.5 04:16:08 10° N 04:20:30 32° NNW 04:20:30 32° NNW
Cosmos 2180 Rocket 4.4 04:23:52 48° N 04:25:48 85° E 04:32:08 10° S
Cosmos 1937 Rocket 4.1 04:25:55 48° NNE 04:26:38 52° ENE 04:31:37 10° SE
Cosmos 909 Rocket 4.5 04:28:18 53° NNW 04:28:18 53° NNW 04:34:24 10° NE
Cosmos 372 Rocket 4.2 04:33:38 59° SSE 04:33:38 59° SSE 04:37:43 10° SSE
Celestis-02/Orion 38 4.5 04:30:27 10° NNE 04:35:18 81° NE 04:35:18 81° NE
Cosmos 2333 Rocket 3.4 04:33:56 24° N 04:36:44 39° NE 04:42:06 10° ESE
NOSS 3-1 (A) 4.4 04:37:46 34° NNW 04:40:46 55° NE 04:49:02 10° ESE
Cosmos 1606 Rocket 3.8 04:43:12 68° ESE 04:43:12 68° ESE 04:47:19 10° SSE
Cosmos 2360 Rocket 3.7 04:40:11 18° N 04:43:25 31° NE 04:48:23 10° ESE
Cosmos 2142 Rocket 4.4 04:47:06 54° NW 04:48:15 65° W 04:54:22 10° S
Cosmos 540 Rocket 4.4 04:56:48 33° N 04:56:48 33° N 04:59:59 10° NNE
USA 234 3.7 04:49:34 10° ENE 04:55:49 48° N 04:57:47 38° NW
Helios 1A Rocket 3.4 04:53:04 10° SSE 04:55:47 45° ESE 04:55:47 45° ESE
SeaSat 1 4.1 04:56:18 10° NNE 04:58:20 20° N 04:58:20 20° N
Cosmos 2219 Rocket 3.9 04:58:08 13° N 05:02:12 28° NE 05:07:01 10° ESE
SL-4 R/B 2.7 05:03:15 39° ENE 05:03:15 39° ENE 05:05:27 10° E
ATLAS 5 CENTAUR R/B 3.4 05:05:55 13° NNE 05:05:55 13° NNE 05:06:30 10° NNE
Cosmos 2322 Rocket 3.1 05:01:43 19° NNW 05:05:37 46° NE 05:11:03 10° SE
Cosmos 1726 Rocket 3.4 05:08:07 46° NNW 05:09:23 87° W 05:13:38 10° S
Meteor 2-3 Rocket 4.0 05:05:34 10° S 05:11:16 71° E 05:16:57 10° NNE
CZ-4 R/B 3.7 05:10:24 10° NNE 05:15:05 89° ESE 05:19:42 10° SSW
Cosmos 489 Rocket 4.5 05:08:58 10° SSW 05:15:17 86° ESE 05:21:36 10° NNE
Nadezhda 4 Rocket 3.9 05:10:01 10° SSW 05:16:18 73° W 05:22:36 10° N
NOSS 2-1 (D) 4.0 05:17:47 38° SW 05:17:47 38° SW 05:21:37 10° SSE
Cosmos 1428 Rocket 4.4 05:11:10 10° S 05:17:24 83° W 05:23:44 10° N
Cosmos 2237 4.2 05:15:45 39° NW 05:17:40 60° WSW 05:23:15 10° S
CZ-2C R/B 4.2 05:14:35 10° N 05:16:11 18° NNW 05:16:11 18° NNW
USA 59 Rocket 0.7 05:20:26 34° SW 05:20:26 34° SW 05:24:16 10° SSE
Cosmos 841 Rocket 3.4 05:18:01 10° SSW 05:23:15 79° WNW 05:28:33 10° NNE
COSMOS 2406 3.2 05:18:06 10° SSW 05:23:47 82° ESE 05:29:29 10° NNE
NOSS 2-1 (E) 3.7 05:25:12 42° SW 05:25:12 42° SW 05:29:30 10° SSE
NOSS 3-1 (C) 4.1 05:21:26 30° NW 05:25:19 63° SW 05:33:58 10° SSE
Cosmos 1833 Rocket 4.1 05:28:01 20° NNW 05:28:01 20° NNW 05:31:32 10° N
Cosmos 1892 Rocket 3.4 05:25:51 10° S 05:30:12 87° W 05:34:39 10° N
Cosmos 2195 Rocket 4.4 05:24:27 10° SSW 05:30:44 82° W 05:37:06 10° N
SL-16 R/B 2.1 05:28:40 23° NNW 05:32:18 78° WSW 05:37:57 10° SSE
Cosmos 2082 Rocket 2.3 05:31:29 20° WSW 05:35:13 51° NW 05:40:43 10° NNE
IRS-1D 3.6 05:37:22 10° N 05:42:11 50° WNW 05:47:04 10° SW
COSMOS 2455 3.6 05:41:19 27° W 05:43:03 32° WSW 05:48:15 10° S
Cosmos 1898 Rocket 4.3 05:42:42 28° W 05:43:40 31° WSW 05:48:12 10° SSW
Meteor 2-20 4.4 05:39:05 10° NNW 05:45:09 65° W 05:51:08 10° S
NOSS 2-1 (C) 4.5 05:44:49 25° WSW 05:45:11 26° SW 05:48:59 10° S
Orbus 7S? 2.8 05:47:32 40° NNW 05:48:15 58° NNE 05:50:55 10° ESE
Cosmos 405 Rocket 4.0 05:45:53 10° SSE 05:48:53 35° E 05:51:55 10° NNE
NOSS 3-4 (A) 4.5 05:49:57 21° NW 05:52:15 26° NNW 05:57:34 10° NE
NOSS 3-4 (C) 4.5 05:50:06 21° NW 05:52:24 26° NNW 05:57:43 10° NE
ATLAS 3B R/B 3.9 05:46:18 15° NW 05:52:34 41° NNE 05:59:45 10° E
Cosmos-2242 2.9 05:49:31 10° NNW 05:53:45 67° W 05:57:55 10° S
Cosmos 1980 Rocket 4.1 05:56:02 12° WSW 05:56:02 12° WSW 05:56:52 10° WSW
Cosmos 2278 3.7 05:51:02 17° NW 05:55:23 61° WSW 06:00:55 10° SSE
COSMO-SKYMED 1 3.2 05:53:45 10° SSW 05:57:26 32° W 05:59:09 23° NW
Cosmos 2058 Rocket 3.2 05:56:32 10° NNW 06:00:53 53° W 06:05:11 10° S
Cosmos 1484 Rocket 2.3 05:57:29 10° N 06:00:55 67° WNW 06:04:15 10° SSW
Cosmos 1627 Rocket 4.4 05:57:16 10° SSW 06:03:17 60° WNW 06:09:23 10° N
Meteor 2-2 Rocket 4.3 05:58:34 10° NNW 06:04:09 59° W 06:09:47 10° S
Cosmos 1346 Rocket 4.4 06:07:59 15° NNW 06:07:59 15° NNW 06:09:04 10° NNW
Okean 1 3.1 06:03:39 13° NNW 06:06:40 51° W 06:10:07 10° S
Meteor 2-20 Rocket 4.3 06:01:38 10° NNW 06:07:20 60° W 06:12:55 10° S
Cosmos 1937 Rocket 4.5 06:06:02 19° WNW 06:08:10 25° W 06:12:19 10° SSW
ARIANE 5 R/B 3.6 06:07:54 10° NNE 06:12:58 50° E 06:18:02 10° S
Cosmos 2285 Rocket 4.0 06:06:59 10° NNW 06:13:24 82° WSW 06:19:47 10° SSE
ATLAS 2AS CENTAUR R/B 4.4 06:08:57 10° S 06:15:20 38° ESE 06:21:34 10° NE
SL-08 ROCKET BODY 4.4 06:10:51 10° S 06:16:42 85° E 06:22:35 10° N
SL-08 R/B 4.4 06:14:03 10° SE 06:18:23 42° ENE 06:22:47 10° N
IRIDIUM 104 4.3 06:13:20 10° S 06:18:34 77° W 06:23:49 10° N
Cosmos 2333 Rocket 2.6 06:15:59 12° NW 06:21:09 46° WSW 06:26:35 10° S
SAR-Lupe-4 4.2 06:19:45 10° NNE 06:23:17 59° ESE 06:26:47 10° S
SMAP 3.1 06:19:34 10° NNE 06:24:16 86° ESE 06:28:55 10° SSW
IRIDIUM 114 4.3 06:22:32 10° SSW 06:27:43 65° W 06:32:56 10° N
Cosmos 2360 Rocket 2.3 06:22:13 10° NW 06:27:44 58° WSW 06:33:13 10° S
Helios 1A Rocket 4.4 06:27:44 10° WSW 06:29:13 12° W 06:29:20 12° W
Landsat 7 3.9 06:25:32 10° NNE 06:30:13 81° ESE 06:34:52 10° SSW
NOSS 3-1 (A) 4.4 06:25:10 11° NW 06:31:52 54° WSW 06:40:24 10° SSE
CBERS-1 4.1 06:27:53 10° N 06:32:54 58° WNW 06:37:52 10° SSW
Cosmos 2026 Rocket 4.4 06:27:27 10° SW 06:32:58 36° WNW 06:38:35 10° N
IGS 5A 3.8 06:30:01 10° N 06:33:45 39° WNW 06:37:29 10° SW
Cosmos 1814 Rocket 4.0 06:29:13 10° SSW 06:34:27 77° WNW 06:39:47 10° NNE
BREEZE-M DEB (TANK) 3.1 06:34:38 12° W 06:36:05 27° SSW 06:38:22 10° SE
Cosmos 2237 Rocket 3.9 06:31:45 10° NNW 06:36:22 25° NE 06:40:58 10° E
IRIDIUM 103 4.4 06:31:48 10° SSW 06:36:55 55° W 06:42:03 10° N
USA 234 3.5 06:31:52 10° E 06:38:20 64° NNE 06:44:50 10° WNW
SL-4 R/B 1.5 06:36:58 12° WNW 06:39:54 66° SSW 06:43:03 10° ESE
Cosmos 1758 Rocket 3.6 06:36:25 10° SSW 06:40:47 59° WNW 06:45:09 10° N
Cosmos 1733 2.4 06:40:00 10° SW 06:41:36 24° WNW 06:43:13 10° NNW
Cosmos 1743 2.2 06:38:37 10° SSW 06:41:50 67° W 06:45:06 10° N
IRS-1C 4.3 06:36:50 10° NNE 06:42:12 81° ESE 06:47:31 10° SSW
Thor Agena Rocket 3.5 06:40:23 10° N 06:45:25 64° WNW 06:50:23 10° SSW
BREEZE-M DEB (TANK) 3.3 06:43:04 10° W 06:45:55 84° S 06:54:04 10° E
Cosmos 2219 Rocket 2.3 06:40:59 10° NNW 06:46:37 68° WSW 06:52:12 10° SSE
Cosmos 192 4.3 06:42:01 10° NNW 06:46:57 75° WSW 06:51:50 10° SSE
ATLAS 5 CENTAUR R/B 3.3 06:46:35 10° NNW 06:47:29 11° N 06:48:26 10° NNE
Cosmos 2322 Rocket 2.9 06:44:22 10° NW 06:49:33 36° WSW 06:54:41 10° S
S3M 4.0 06:44:02 10° N 06:50:17 81° W 06:56:24 10° S
Cosmos 1553 Rocket 4.5 06:46:51 10° NNW 06:52:45 41° W 06:58:40 10° SSW
USA 229 4.3 06:48:03 10° NW 06:55:18 67° NE 07:03:20 10° SE
USA 229 DEB 4.3 06:48:09 10° NW 06:55:24 67° NE 07:03:25 10° SE
Cosmos 2322 4.1 06:49:48 10° NNW 06:55:28 67° ENE 07:01:06 10° SE
SJ-12 3.8 06:53:50 10° N 06:57:36 57° WNW 07:01:20 10° SSW
SKYMED 3 4.3 06:54:50 10° S 06:58:51 78° WSW 07:02:53 10° NNW
Resurs 01 Rocket 4.3 06:55:58 10° NE 06:59:27 23° E 07:02:55 10° SE
YAOGAN 1 3.7 06:56:24 10° NNE 07:00:33 49° E 07:04:41 10° S
